Find Thor 2R

NORAD ID: 32487 Int'l Des: 2008-006 Owner: TNOR Country: N operational
HEOCIRCULARGSOGEO

实时位置

正在加载3D地球...

关于 Thor 2R

正在加载描述...

即将过境

Passes for default location (London). Set your location on the main map for personalized predictions.

高度历史

Loading altitude history...

两行轨道根数

1 32487U 08006A 26104.23002289 -.00000005 00000-0 00000-0 0 9993
2 32487 0.0218 241.9289 0002491 150.0878 252.4595 1.00272676 66675
Epoch: Apr 14, 2026 • Age: 11 hours

当前状态

高度 35780.1 km
速度 3.08 km/s
星下点 -0.03°S, 0.72°W
发射日期 Feb 11, 2008
运行时间 18.1 years
类型 other

技术详情

分类 Payload
质量 2012.00 kg
干质量 1090.00 kg
总质量 2012.00 kg
长度 4.90 m
直径 3.40 m
跨度 21.40 m
形状 Box + 2 Pan
制造商 OSCD
平台类型 OSC Star 2
阶段状态 In Orbit
所有者/国家 TNOR/N

Most Searched